Location: Mohawk View
(42.7837°N, 73.7885°W)
Time: 16:48:20
(UTC+00:00)

Meteor 2-11 Rocket - Pass Details

Date: 17 June 2021
Orbit: 938 x 958 km, 82.5° (Epoch: 01 August)

Event Time Altitude Azimuth Distance (km) Brightness Sun altitude
Rises 02:33:13 0° 351° (N) 3,633 8.7 -16.1°
Reaches altitude 10° 02:35:44 10° 352° (N) 2,680 7.8 -16.4°
Maximum altitude 02:41:53 88° 83° (E) 951 4.4 -17.0°
Enters shadow 02:45:41 25° 172° (S) 1,821 5.4 -17.3°
